Simultaneous Nadir Overpasses (SNOs) Predictions

Prediction of SNOs between GOES-14 and AQUA Satellite Orbit:

Table of predicted SNOs for the next 14.0 days since TLE Epoch: 2/5/2022
Index Date Time (GOES-14) GOES-14 Lat,Lon AQUA Lat,Lon Distance(km) Time Diff (sec)
1 02/05/2022 20:24:32 -0.02,-104.32 0.42,-102.39 220.18 80
2 02/06/2022 08:45:48 0.02,-104.61 0.63,-107.55 334.26 80
3 02/08/2022 08:36:14 0.02,-104.62 0.01,-104.58 4.71 80
4 02/10/2022 08:24:00 0.02,-104.63 -0.63,-101.61 343.69 80
5 02/10/2022 20:45:22 -0.02,-104.35 -0.54,-106.78 276.11 80
6 02/12/2022 20:30:28 -0.02,-104.35 0.12,-103.81 62.54 80
7 02/13/2022 08:51:43 0.02,-104.62 0.97,-108.96 494.15 80
8 02/14/2022 20:18:13 -0.02,-104.36 0.74,-100.83 401.23 80
9 02/15/2022 08:39:29 0.01,-104.63 0.29,-105.99 155.06 80
10 02/17/2022 08:29:54 0.01,-104.63 -0.34,-103.02 184.12 80
11 02/17/2022 20:51:16 -0.01,-104.38 -0.81,-108.19 432.89 80
